IRNSS-1C

Last updated on Fri Jun 26 2026 00:03:06 GMT+0000 (Coordinated Universal Time)

1 40269U 14061A 26176.68398682 -.00000155 00000+0 00000+0 0 9995 2 40269 6.5386 88.7700 0022592 3.4967 150.6688 1.00267985 42772
UTC large
Height (km)
Speed (km/s)
/
Latitude / Longitude
Inclination (degrees)
Orbital Period (minutes)
Azimuth
Elevation
Range (km)
Doppler Factor

Next 0 passes for location: London (51.5072 / 0.1276)

No passes found over London.
IRNSS-1C